Vorticity
7 8 9 8 6 15 -10 18 -13 -1 7 5 8 7 7 -2 8 7 8 5 13 11 3 10 9 7 10 10 9 9 7 7 8 4 7 10 9 7 11 6 15 5 6 6
10 12 8 7 6 5 5 4 10 6 7 11 10 10 -0 11 -4 10 7 6 13 10 11 6 13 8 7 8 13 11 9 7 8 7 7 7 10 9 10 11 10 0 8 8
11 8 11 10 8 5 5 7 3 1 -2 -6 10 -3 2 12 -3 9 9 5 6 15 9 7 7 15 8 8 10 13 13 12 7 11 6 5 5 -2 2 8 14 6 6 6
12 7 6 12 12 8 6 5 12 10 9 9 2 3 -2 5 13 5 8 8 7 11 9 6 6 10 12 7 7 10 11 10 9 10 9 11 7 6 6 1 13 18 0 6
14 9 10 12 12 8 11 6 -4 -3 7 10 10 7 0 5 -6 17 5 4 5 3 9 18 8 8 11 11 7 7 8 11 11 10 8 8 8 5 8 12 7 11 21 6
5 5 6 8 6 6 8 9 6 7 9 9 19 20 8 9 15 -10 -8 -2 1 3 4 9 18 5 10 11 11 7 10 5 9 11 13 13 9 10 11 14 8 10 8 5
3 3 6 4 6 8 9 9 10 11 11 1 13 15 7 13 15 20 31 11 5 5 -1 11 12 12 7 4 11 10 7 11 7 8 10 13 12 10 11 11 12 10 12 10
11 9 14 3 12 8 10 11 10 2 -1 -8 50 13 5 13 6 -3 24 11 13 -3 4 6 8 13 11 9 3 10 9 8 10 10 9 10 12 12 11 9 9 11 12 12
8 20 3 15 12 9 16 10 23 3 11 3 3 -8 1 10 10 6 8 10 18 14 -5 0 6 7 6 13 8 11 13 12 9 8 9 10 11 9 9 8 7 8 10 9
19 -13 1 3 8 8 13 13 3 7 4 22 12 5 8 4 21 5 13 18 36 -3 1 12 5 4 4 20 12 7 10 14 11 13 7 10 9 11 11 9 7 6 5 6
10 2 3 13 7 20 11 13 13 20 -2 2 2 8 14 17 2 17 8 8 15 2 2 23 4 6 4 12 7 3 1 14 14 8 10 6 8 8 8 8 7 7 6 6
7 7 16 -2 -3 2 15 0 -3 2 15 22 12 2 5 -6 7 -19 -3 20 15 -14 3 16 3 4 9 10 10 6 9 9 11 14 14 15 2 6 8 9 6 7 7 7
-6 1 11 1 4 15 1 5 10 10 4 -0 9 -3 13 15 0 34 8 7 -4 4 17 13 8 2 10 16 14 17 12 9 12 11 13 19 13 -3 9 15 8 8 8 7
4 5 -5 7 13 10 -12 21 8 2 9 8 8 8 1 6 42 14 5 -5 8 14 18 19 8 1 6 6 6 18 9 7 10 9 10 11 7 6 7 8 13 7 6 6
8 12 9 -2 1 -1 -19 -1 12 8 10 14 11 -1 16 30 -7 7 -1 5 21 26 22 18 12 2 3 14 5 7 8 11 3 10 12 7 7 5 13 10 12 12 10 8
9 9 10 8 7 8 4 -21 2 3 2 4 22 24 -2 -13 -8 -0 0 5 11 -22 -29 14 14 7 1 2 10 12 11 7 4 8 7 6 7 6 2 5 11 12 12 8
10 9 9 10 15 19 12 12 2 -4 -8 -1 -2 -5 9 30 11 14 1 -13 -6 -8 -1 22 11 10 12 6 8 7 1 2 4 2 1 -2 6 13 7 10 6 7 15 11
2 3 4 5 1 -7 16 5 6 3 13 16 24 38 -0 2 3 1 18 14 11 5 23 16 12 7 9 6 5 1 2 3 5 6 7 7 4 4 4 10 12 9 4 9
13 11 10 9 7 8 2 9 11 19 -8 4 6 -19 3 18 10 4 7 1 28 7 10 9 13 11 9 5 4 4 12 11 8 7 6 7 6 5 5 4 8 3 23 6
16 15 12 8 8 8 17 10 18 -0 -2 20 1 -7 13 10 34 8 2 -3 8 13 -7 8 10 7 7 5 2 1 4 3 4 4 3 3 7 3 6 12 5 12 11 14
20 28 28 37 36 22 19 17 18 8 28 30 14 4 12 6 15 -6 2 13 5 10 11 11 9 10 6 4 2 3 5 1 4 5 7 3 2 3 5 6 10 1 9 7
14 -2 -6 21 0 4 4 11 -7 12 -3 -4 3 -1 9 1 5 20 18 17 8 13 11 8 11 7 8 3 3 3 3 4 6 3 6 8 6 5 7 6 10 9 14 7
20 17 2 -2 29 15 -15 10 17 4 32 23 -2 -9 5 5 11 13 13 20 9 10 3 5 5 15 6 6 4 1 -4 -4 1 10 14 10 7 9 8 5 10 12 13 14
8 0 0 11 23 10 8 16 -7 13 18 14 19 20 24 16 20 15 19 17 18 10 11 6 3 6 5 9 6 9 5 4 6 5 11 8 13 11 9 11 8 20 16 23
17 16 14 16 17 16 16 22 9 23 2 11 -5 55 -2 5 27 16 14 15 14 16 8 12 2 6 5 5 6 7 5 6 5 7 5 1 13 6 13 5 24 25 21 27
18 15 12 10 7 13 25 21 5 13 9 4 -9 -2 -5 17 20 16 16 13 17 12 15 12 3 10 6 7 6 4 9 8 8 6 4 5 13 -3 8 6 -8 52 53 11
Height
5905 5905 5906 5906 5907 5907 5909 5911 5910 5909 5907 5906 5904 5903 5902 5898 5901 5900 5898 5898 5897 5897 5896 5895 5895 5894 5896 5897 5896 5898 5899 5901 5902 5904 5907 5909 5912 5914 5917 5918 5920 5923 5926 5929
5902 5904 5903 5904 5905 5906 5907 5908 5908 5907 5907 5905 5904 5903 5901 5900 5897 5899 5898 5897 5896 5897 5897 5895 5895 5895 5895 5895 5897 5898 5897 5899 5902 5904 5906 5908 5911 5914 5917 5919 5921 5922 5925 5929
5898 5900 5900 5902 5903 5904 5905 5905 5905 5906 5906 5903 5903 5904 5901 5901 5898 5898 5897 5896 5895 5896 5895 5895 5895 5895 5895 5895 5896 5896 5898 5900 5902 5903 5905 5908 5910 5912 5915 5918 5920 5922 5925 5927
5896 5897 5897 5899 5901 5901 5902 5903 5902 5902 5902 5902 5901 5902 5903 5903 5898 5895 5896 5895 5895 5894 5894 5894 5894 5894 5894 5894 5894 5896 5896 5898 5900 5902 5905 5907 5909 5910 5912 5915 5917 5920 5923 5925
5894 5894 5895 5896 5898 5898 5900 5899 5899 5900 5900 5899 5900 5899 5902 5904 5900 5895 5893 5893 5892 5893 5893 5893 5893 5893 5894 5894 5894 5894 5896 5896 5898 5900 5902 5904 5907 5909 5911 5913 5915 5918 5921 5923
5891 5891 5893 5894 5894 5895 5897 5897 5897 5898 5898 5898 5898 5898 5902 5905 5902 5899 5898 5893 5891 5890 5891 5891 5892 5893 5893 5894 5894 5895 5895 5896 5896 5898 5900 5901 5903 5906 5908 5910 5912 5914 5917 5921
5888 5889 5890 5891 5891 5892 5893 5894 5895 5896 5897 5898 5899 5900 5903 5899 5899 5896 5896 5896 5892 5890 5889 5891 5890 5891 5892 5893 5894 5895 5895 5896 5895 5896 5898 5900 5902 5903 5905 5907 5909 5912 5915 5916
5885 5887 5885 5885 5887 5888 5888 5890 5892 5895 5901 5903 5900 5902 5901 5898 5898 5897 5893 5893 5894 5892 5889 5889 5889 5889 5890 5891 5893 5893 5894 5895 5895 5895 5897 5898 5900 5901 5903 5905 5908 5910 5912 5914
5882 5888 5884 5881 5882 5884 5885 5886 5889 5890 5893 5896 5899 5901 5897 5896 5891 5890 5891 5891 5891 5890 5889 5886 5889 5888 5889 5889 5890 5892 5893 5893 5894 5895 5895 5897 5898 5900 5902 5903 5906 5907 5909 5911
5878 5879 5882 5878 5878 5879 5881 5883 5886 5888 5890 5890 5893 5896 5897 5893 5888 5885 5887 5887 5887 5886 5884 5887 5886 5885 5886 5885 5887 5889 5890 5891 5892 5894 5894 5896 5897 5899 5900 5902 5903 5904 5905 5908
5872 5873 5877 5879 5874 5876 5876 5878 5880 5882 5886 5889 5892 5895 5887 5887 5884 5884 5884 5884 5884 5882 5880 5885 5883 5883 5883 5884 5884 5886 5888 5888 5889 5891 5893 5894 5895 5897 5898 5899 5900 5902 5903 5904
5865 5867 5868 5871 5876 5872 5874 5876 5879 5879 5881 5881 5883 5887 5888 5884 5879 5878 5880 5880 5878 5875 5878 5879 5880 5879 5880 5881 5882 5883 5884 5885 5887 5889 5891 5892 5893 5895 5897 5897 5898 5899 5900 5902
5861 5859 5861 5864 5869 5872 5871 5872 5873 5875 5878 5880 5881 5886 5881 5881 5877 5876 5875 5873 5870 5870 5873 5874 5874 5876 5877 5878 5878 5880 5881 5882 5884 5886 5888 5889 5891 5893 5894 5895 5896 5897 5897 5898
5851 5852 5854 5858 5864 5869 5864 5866 5867 5868 5870 5873 5876 5880 5881 5879 5868 5871 5871 5867 5866 5865 5867 5868 5869 5871 5873 5875 5875 5876 5877 5880 5882 5884 5885 5886 5889 5890 5890 5891 5892 5893 5894 5895
5840 5841 5845 5846 5850 5852 5854 5858 5860 5860 5861 5864 5867 5866 5867 5864 5860 5863 5865 5856 5858 5857 5860 5863 5864 5867 5869 5870 5872 5873 5875 5877 5879 5881 5882 5883 5885 5886 5887 5887 5887 5888 5889 5889
5828 5830 5833 5834 5837 5841 5842 5845 5849 5851 5852 5853 5854 5855 5857 5857 5857 5856 5856 5855 5853 5851 5853 5858 5860 5862 5865 5867 5869 5870 5872 5874 5876 5877 5878 5879 5880 5881 5882 5882 5884 5884 5885 5885
5817 5817 5820 5822 5825 5828 5827 5834 5836 5838 5839 5842 5842 5846 5848 5848 5851 5851 5846 5844 5841 5845 5850 5854 5854 5857 5860 5862 5865 5867 5868 5870 5872 5873 5874 5876 5876 5877 5877 5877 5878 5879 5879 5880
5805 5806 5808 5809 5812 5809 5821 5823 5825 5824 5827 5827 5827 5830 5833 5835 5841 5836 5830 5835 5837 5843 5845 5847 5848 5850 5854 5857 5859 5861 5864 5866 5867 5868 5870 5871 5872 5873 5873 5873 5873 5873 5873 5874
5794 5794 5795 5796 5796 5801 5805 5810 5814 5813 5810 5814 5816 5818 5816 5820 5824 5818 5818 5823 5831 5835 5836 5840 5842 5844 5848 5851 5853 5856 5858 5859 5861 5862 5863 5864 5866 5868 5868 5868 5868 5867 5866 5866
5780 5780 5780 5784 5783 5786 5796 5798 5797 5793 5791 5798 5800 5800 5801 5805 5811 5809 5807 5814 5822 5827 5830 5832 5835 5837 5841 5843 5846 5849 5851 5852 5852 5854 5855 5856 5857 5858 5860 5859 5859 5860 5859 5859
5766 5766 5765 5768 5769 5775 5780 5781 5785 5775 5787 5783 5781 5783 5785 5793 5796 5798 5802 5807 5811 5816 5821 5824 5826 5830 5834 5836 5839 5842 5843 5845 5847 5848 5850 5850 5851 5851 5850 5851 5852 5852 5851 5850
5756 5757 5758 5758 5759 5761 5762 5765 5768 5764 5764 5766 5769 5771 5775 5781 5786 5790 5790 5795 5798 5804 5810 5814 5817 5821 5825 5829 5831 5834 5836 5839 5841 5842 5843 5845 5844 5844 5844 5842 5842 5841 5841 5840
5743 5745 5743 5746 5746 5747 5749 5750 5750 5753 5752 5754 5756 5757 5764 5768 5771 5775 5778 5783 5786 5790 5798 5805 5807 5812 5817 5820 5823 5827 5829 5831 5833 5835 5837 5838 5837 5837 5836 5834 5833 5832 5831 5830
5730 5729 5730 5732 5736 5735 5736 5737 5736 5741 5743 5744 5743 5746 5745 5753 5758 5760 5763 5768 5775 5779 5785 5794 5796 5803 5807 5810 5814 5819 5820 5823 5826 5829 5830 5831 5831 5830 5828 5825 5822 5820 5819 5819
5719 5719 5719 5722 5721 5721 5724 5722 5723 5728 5730 5733 5731 5731 5731 5738 5740 5744 5748 5755 5762 5767 5774 5781 5786 5794 5797 5801 5805 5810 5813 5816 5819 5821 5823 5824 5824 5823 5821 5818 5812 5808 5807 5805
5709 5709 5707 5706 5705 5706 5709 5707 5707 5711 5716 5715 5713 5709 5719 5724 5726 5732 5737 5742 5748 5755 5761 5768 5773 5782 5785 5790 5797 5801 5804 5808 5811 5814 5816 5817 5817 5817 5815 5812 5807 5799 5794 5796